Location: Kam�li
(14.6864°N, 3.1482°W)
Time: 02:10:26
(UTC+00:00)

Cosmos 44 Rocket - Pass Details

Date: 29 October 2020
Orbit: 642 x 748 km, 65.1° (Epoch: 02 December)

Event Time Altitude Azimuth Distance (km) Brightness Sun altitude
Rises 18:03:10 0° 212° (SSW) 2,939 7.3 -5.1°
Reaches altitude 10° 18:05:28 10° 216° (SW) 2,037 6.5 -5.6°
Maximum altitude 18:09:58 54° 293° (WNW) 797 4.0 -6.7°
Drops below altitude 10° 18:14:34 10° 11° (N) 2,084 5.5 -7.8°
Sets 18:16:58 0° 16° (NNE) 3,014 6.3 -8.3°
